Location: Esp�s Alto
(42.4476°N, 0.5876°E)
Time: 22:13:01
(UTC+00:00)

Cosmos 1850 Rocket - Pass Details

Date: 22 October 2019
Orbit: 754 x 786 km, 74.0° (Epoch: 17 November)

Event Time Altitude Azimuth Distance (km) Brightness Sun altitude
Rises 05:28:20 0° 215° (SW) 3,198 6.9 -9.9°
Reaches altitude 10° 05:30:46 10° 221° (SW) 2,275 6.1 -9.5°
Maximum altitude 05:35:44 47° 295° (WNW) 993 4.2 -8.6°
Drops below altitude 10° 05:40:44 10° 9° (N) 2,289 6.5 -7.6°
Sets 05:43:12 0° 15° (NNE) 3,220 7.3 -7.2°
